ECMWFNIL_925_spd_264.txt.gz
Wind_Speed
7 7 6 5 3 3 3 2 1 1 1 1 2 3 4 5 7 9 9 9 10 11 12 13 13 14 15 15 15 14 14 12 10 9 12 13 13 13 13 13 13 15
6 6 7 6 4 4 2 2 1 1 1 3 4 5 5 7 8 8 9 10 11 11 12 13 14 14 16 16 16 16 15 13 12 11 12 13 14 14 14 14 15 15
5 5 5 6 5 4 2 1 2 1 3 5 6 6 7 8 9 9 10 11 11 12 12 13 14 14 15 16 16 16 16 15 14 13 12 14 15 15 15 16 17 16
5 4 4 5 4 3 2 2 3 3 5 6 7 7 8 9 10 10 11 11 12 13 13 13 14 14 15 15 16 17 16 15 15 13 14 17 17 18 18 17 17 17
5 5 5 4 4 4 3 4 5 5 6 7 8 8 9 10 11 11 12 12 13 14 15 15 15 15 15 16 16 17 17 16 15 13 16 20 20 20 19 17 18 19
5 6 5 5 5 5 5 6 7 7 7 8 8 9 10 11 12 12 13 14 14 15 16 16 16 16 16 16 17 18 18 17 16 16 19 21 21 21 19 19 20 21
6 6 6 6 5 6 6 6 6 7 8 9 10 10 11 12 13 13 14 15 16 17 17 17 18 17 17 16 18 19 19 19 19 19 21 22 23 23 22 21 22 23
6 6 6 6 6 6 6 6 7 8 9 10 11 11 12 13 14 14 15 16 17 18 18 19 19 18 18 18 18 20 20 21 21 21 23 24 24 24 24 23 23 25
6 6 6 6 6 6 7 8 9 9 10 11 12 13 13 14 15 16 16 17 18 19 19 20 20 20 19 19 19 20 21 22 22 22 23 24 25 25 25 24 24 26
6 6 7 7 7 7 8 9 10 11 12 13 13 14 14 15 16 17 17 18 19 20 20 21 22 21 21 20 20 21 22 23 23 23 24 25 26 26 26 25 26 27
6 7 8 8 8 9 9 10 11 12 13 13 14 15 16 17 17 18 18 19 20 20 21 22 22 23 22 22 21 21 22 24 24 24 25 26 26 27 26 26 27 28
7 8 9 9 9 10 10 11 12 13 14 15 15 16 17 18 18 19 19 20 21 21 22 23 23 23 24 23 22 22 23 24 24 25 26 27 28 28 28 28 28 29
8 9 10 10 10 10 11 12 13 14 15 15 15 16 17 18 19 20 20 21 22 22 22 23 24 24 24 24 23 23 23 24 25 26 27 28 29 29 29 30 30 30
8 10 10 10 10 11 12 13 14 15 15 16 16 17 18 19 20 20 21 22 23 23 23 24 24 25 25 24 23 23 23 25 25 26 28 29 30 31 31 31 32 32
9 11 11 10 11 12 13 14 14 15 16 16 17 18 18 20 20 20 22 23 23 24 24 24 26 26 25 24 24 24 24 24 25 26 28 30 31 32 32 33 34 34
10 11 11 11 12 13 13 14 15 16 17 17 17 18 19 20 20 21 22 23 24 24 25 26 27 27 25 24 24 25 24 25 26 28 30 31 33 34 35 35 35 35
11 11 12 12 13 13 14 15 16 16 17 18 18 19 19 20 21 22 22 23 24 25 26 27 27 27 25 25 24 23 24 25 28 30 30 31 33 35 36 35 35 35
11 11 12 13 13 14 14 15 16 17 18 18 18 19 20 21 22 23 23 24 25 26 28 28 28 27 26 25 25 23 23 25 27 29 30 31 32 33 34 34 34 34
11 12 13 13 13 14 15 15 17 17 17 18 19 20 21 22 23 23 24 25 25 27 28 29 29 28 26 26 26 25 24 25 27 29 30 31 32 33 34 34 35 35
12 13 13 13 13 14 15 16 17 17 18 19 20 21 22 23 24 24 25 26 27 27 29 31 30 29 28 27 26 25 24 24 27 29 30 31 32 34 36 36 36 36
12 13 13 14 14 14 15 16 17 18 19 20 20 22 22 23 24 25 26 27 28 28 30 32 32 30 29 29 27 25 24 24 27 29 31 32 33 35 36 36 35 35
12 13 13 14 14 15 16 17 18 19 20 20 21 22 23 24 25 26 27 29 29 30 31 33 33 31 30 30 29 26 24 25 28 30 30 32 33 34 34 34 34 34
12 13 13 14 15 16 17 18 19 20 20 20 21 23 24 25 26 27 29 30 31 30 31 33 34 33 31 31 30 27 24 26 28 30 30 32 33 33 34 33 33 32
12 13 14 15 16 17 18 19 20 21 21 21 21 23 25 26 27 29 30 30 31 31 31 33 35 35 32 31 31 27 25 25 27 28 30 31 31 32 32 32 32 32
14 15 16 16 17 18 18 20 21 22 22 22 22 24 26 27 28 29 31 32 32 32 31 32 35 35 32 31 30 27 24 24 26 27 29 30 30 32 32 31 31 31
15 15 15 16 17 18 19 21 23 23 23 23 24 25 27 28 29 30 32 34 33 33 33 33 34 34 32 30 28 26 24 23 24 27 29 29 30 31 31 31 29 29

ECMWFNIL_925_spd_270.txt.gz
Wind_Speed
25 23 22 21 20 19 17 16 14 13 11 10 8 7 6 5 5 5 4 3 3 3 4 4 5 5 5 6 6 7 7 7 7 8 9 9 9 10 10 10 10 11
25 24 23 21 20 18 16 15 13 12 11 10 10 10 9 8 8 7 6 5 5 5 5 5 5 6 6 7 7 8 9 9 9 9 11 11 11 12 12 12 12 13
25 24 23 21 20 18 16 14 13 12 12 12 12 12 11 10 10 9 8 7 7 7 7 7 7 7 7 8 8 9 10 11 11 12 13 13 13 14 14 14 15 15
25 24 22 20 19 17 15 14 13 13 13 13 13 13 13 12 11 11 10 10 10 9 9 9 9 8 8 9 10 11 12 13 13 14 16 16 15 15 16 16 17 17
24 22 21 19 18 17 16 15 14 14 14 14 14 14 13 13 13 12 11 11 11 11 11 10 10 10 10 10 11 12 13 14 14 15 17 19 18 17 17 18 19 19
23 22 20 19 18 16 16 15 15 15 14 14 14 14 14 13 13 12 12 13 13 12 12 12 12 11 11 11 12 13 15 16 16 16 18 20 20 20 19 19 20 21
24 22 21 19 18 17 16 16 15 15 14 14 14 14 14 13 13 13 14 14 14 13 13 13 13 12 12 12 13 14 15 17 17 18 19 21 22 22 21 20 21 23
24 22 21 20 19 18 17 16 16 15 14 14 14 14 14 14 14 15 15 15 15 14 14 14 14 14 13 13 14 15 16 18 19 19 20 22 23 24 22 21 23 24
24 22 21 20 19 19 18 17 16 15 14 15 14 15 15 15 16 16 16 16 15 15 15 15 15 15 15 15 15 16 18 19 20 20 21 23 24 24 23 23 24 26
23 22 21 20 20 19 18 17 16 15 15 15 15 16 16 16 16 16 16 16 15 15 16 16 16 15 16 16 17 18 19 20 21 20 21 23 25 25 24 24 25 26
24 22 21 20 20 19 18 17 16 16 16 16 16 16 16 16 16 16 16 16 16 16 17 17 16 16 17 18 18 19 20 21 21 21 22 23 25 25 25 25 26 27
25 23 22 20 20 19 18 17 16 16 16 16 15 16 16 16 16 16 16 16 17 17 18 18 17 18 19 19 19 20 21 21 21 21 22 24 25 26 26 26 27 27
26 23 22 20 19 18 17 17 17 17 16 15 15 16 16 16 16 16 16 17 17 18 18 18 19 19 20 20 20 21 21 21 21 21 23 24 26 26 26 26 27 27
26 23 21 20 19 18 18 18 17 16 15 15 16 17 18 17 17 17 17 17 18 19 19 19 20 20 21 21 21 21 21 21 21 21 23 24 26 27 26 26 27 27
26 23 21 20 19 19 19 18 16 15 15 16 17 18 18 17 17 17 18 18 19 19 20 20 21 21 21 21 21 20 20 20 20 21 22 24 26 27 27 27 28 29
26 24 22 21 21 20 19 18 16 16 16 17 18 19 18 18 18 18 19 20 20 20 20 21 22 21 20 20 20 20 20 20 21 22 23 25 28 29 30 30 30 30
26 24 23 22 21 20 19 18 17 17 18 19 19 19 18 18 18 19 20 20 20 21 22 22 22 21 19 19 18 18 19 21 23 25 26 27 29 31 32 32 31 31
27 25 24 22 21 20 19 17 17 18 19 20 20 19 18 18 19 20 20 20 21 22 23 23 22 20 18 18 18 18 19 21 23 25 27 28 30 31 31 32 33 33
27 25 24 22 21 20 19 18 18 20 20 20 20 19 19 20 20 21 20 20 21 22 22 23 22 20 19 19 19 18 18 21 22 25 27 29 30 31 31 32 32 31
27 25 24 22 21 20 19 19 20 21 20 20 20 19 20 21 20 20 20 21 21 21 23 23 23 21 20 19 19 18 19 20 22 24 27 29 30 30 31 31 31 31
27 26 24 22 22 21 21 21 21 21 21 20 19 19 20 20 20 20 20 21 21 22 23 25 24 22 21 21 20 19 19 21 22 25 28 30 32 32 33 34 34 34
28 26 24 23 23 22 22 23 22 22 20 18 18 19 20 20 20 20 21 22 23 23 24 26 25 24 22 21 21 20 20 21 23 25 28 31 33 33 34 34 34 33
28 26 24 24 24 23 24 23 22 21 18 17 18 19 20 20 21 21 22 23 24 25 26 27 26 24 23 22 22 21 20 21 23 25 28 31 33 33 33 33 32 31
28 26 25 24 24 24 24 23 20 19 17 16 18 20 21 21 22 22 23 25 26 26 26 28 28 25 23 23 23 22 21 21 23 25 28 31 32 32 31 31 31 31
27 25 25 25 25 24 23 20 19 17 17 18 19 21 22 22 22 24 26 26 27 27 27 28 29 25 22 23 24 22 20 21 22 24 27 29 30 31 32 32 32 32
26 25 25 25 25 23 20 18 18 18 18 19 21 21 23 24 24 26 28 28 28 28 28 28 28 25 22 23 24 21 18 18 21 24 27 29 30 31 33 34 33 33

ECMWFNIL_925_spd_276.txt.gz
Wind_Speed
34 34 34 33 33 32 31 30 29 29 29 29 28 26 24 22 21 19 18 16 15 14 13 12 11 10 10 9 8 8 7 7 7 7 7 7 7 7 7 7 7 7
35 35 34 33 32 31 31 30 29 29 28 28 27 25 24 22 20 19 18 17 16 15 14 13 12 12 11 11 10 10 9 9 9 9 9 8 8 9 8 8 9 9
36 35 35 34 33 32 32 30 29 28 27 26 26 24 23 21 20 20 19 18 17 16 16 15 14 13 13 12 11 11 11 11 11 11 11 10 10 10 10 10 10 10
37 36 36 35 34 33 32 31 29 28 27 26 26 24 22 21 20 20 19 19 18 17 17 17 16 15 14 14 13 13 13 12 12 13 12 12 11 11 11 11 12 12
38 37 36 35 34 33 33 32 31 30 28 27 26 24 23 22 21 21 20 20 20 19 19 18 17 17 16 16 15 14 14 14 14 14 14 14 13 13 13 13 14 14
38 38 37 36 35 34 33 32 31 30 29 28 27 25 24 23 22 22 22 21 21 21 20 20 19 18 17 17 17 16 16 16 16 15 16 16 15 15 14 14 15 16
38 38 37 37 36 35 34 33 32 30 29 28 27 26 25 24 23 22 22 22 21 21 21 21 20 19 19 18 18 18 17 17 17 17 17 17 17 17 16 16 16 17
38 38 38 37 37 36 34 33 32 31 30 28 28 27 26 25 24 23 23 22 22 22 21 21 21 20 20 20 19 19 19 19 19 18 19 19 19 19 18 17 18 19
38 38 38 37 37 36 35 34 33 32 31 30 29 28 26 25 24 23 22 22 22 22 21 22 22 21 21 21 20 20 20 20 20 20 20 21 21 21 19 19 19 20
38 38 38 38 37 37 36 35 34 33 32 30 29 27 26 25 24 23 22 22 22 22 22 22 22 22 22 21 21 20 20 20 20 20 22 22 22 22 21 21 21 21
38 39 39 38 38 37 36 36 35 33 32 30 29 27 26 25 24 24 23 23 23 23 22 22 22 22 22 21 21 21 21 21 21 22 22 23 23 22 22 22 22 22
38 39 39 39 38 37 36 36 35 33 32 30 29 28 27 26 25 24 24 23 23 23 22 22 22 21 21 21 20 21 21 21 22 22 23 23 23 23 23 23 23 23
39 39 39 39 38 38 37 36 35 33 32 31 29 28 27 26 24 24 23 23 23 22 22 22 21 21 21 21 21 21 21 22 22 22 23 23 24 24 24 24 24 24
40 39 39 39 38 38 37 36 35 34 32 30 29 27 26 25 24 23 23 22 22 22 22 21 21 22 22 21 21 22 21 22 22 22 23 23 24 25 24 24 25 25
39 38 38 38 37 37 37 36 35 33 32 30 28 27 26 24 23 22 23 23 23 22 22 22 22 22 22 22 21 21 21 21 21 22 23 24 24 25 25 25 26 26
37 37 37 37 37 37 37 36 35 33 31 30 28 27 25 24 24 23 24 24 23 23 22 23 23 23 22 21 21 20 20 20 21 22 23 24 24 25 25 26 26 27
36 36 37 37 37 37 37 36 35 33 31 30 29 27 26 25 25 25 24 24 23 23 23 23 23 22 21 20 20 19 20 20 21 21 22 23 24 24 25 26 27 27
36 36 37 37 37 37 37 35 34 33 32 31 29 27 26 26 25 25 25 24 23 23 23 23 23 22 20 19 19 18 17 19 20 21 22 23 24 24 25 26 27 26
37 37 37 38 37 37 36 35 34 34 33 31 29 27 27 26 26 25 25 24 23 23 23 23 22 21 20 19 19 18 16 17 19 21 23 24 24 24 24 25 26 26
36 37 37 37 37 36 36 35 35 34 33 31 29 28 27 27 26 26 25 24 23 22 22 22 22 22 20 19 19 19 17 17 19 21 23 24 25 25 25 26 27 27
37 37 37 37 36 36 36 36 35 35 33 30 29 28 28 27 26 25 24 23 22 22 22 22 22 21 20 19 19 18 16 16 18 21 22 24 25 26 26 27 27 26
38 37 37 37 36 36 36 36 36 35 33 31 30 28 27 26 25 24 23 23 22 21 22 23 23 22 21 20 19 18 16 16 19 21 23 24 26 28 29 29 30 30
38 38 38 37 37 37 37 37 37 36 34 32 30 28 27 26 25 24 23 22 21 21 22 23 23 22 21 20 19 18 17 17 20 21 22 25 27 28 29 30 32 32
40 40 39 38 38 38 38 38 37 36 34 32 30 28 27 26 24 23 22 22 22 22 22 22 23 23 22 21 20 18 17 18 20 21 22 25 27 27 28 30 31 32
40 39 39 38 38 38 38 38 37 36 34 31 29 27 25 23 22 21 21 22 22 21 21 22 23 23 23 22 21 19 18 18 19 20 23 25 26 27 28 30 31 31
38 38 38 38 38 38 37 37 36 35 32 30 28 25 23 22 21 21 21 22 21 21 22 23 24 24 24 23 22 20 19 19 19 21 24 26 26 26 27 30 31 31

ECMWFNIL_925_spd_282.txt.gz
Wind_Speed
29 28 27 25 25 24 25 29 33 35 37 39 39 39 40 40 40 39 38 37 36 34 32 31 30 28 27 26 25 25 24 23 23 22 20 19 18 17 17 16 15 14
30 29 27 25 25 24 24 27 31 34 36 38 39 39 39 39 39 38 37 37 36 34 33 32 30 29 28 27 27 26 25 25 24 23 21 20 19 18 17 16 15 15
29 29 28 27 26 25 24 25 29 34 35 36 37 38 38 38 37 37 36 36 36 35 34 32 31 30 29 29 28 27 27 26 25 24 22 21 20 19 18 17 16 16
29 29 29 28 27 26 25 26 30 32 32 34 36 37 37 37 36 35 36 36 36 35 34 33 32 32 31 30 29 28 28 27 26 24 23 22 21 20 19 18 17 17
28 29 29 28 28 27 27 28 31 32 32 34 36 37 37 37 36 36 36 36 36 36 35 35 34 33 32 31 30 29 29 27 26 25 24 23 22 21 20 19 19 18
27 29 29 29 29 30 29 30 34 35 35 36 36 37 37 37 37 37 37 37 37 37 37 37 36 35 34 33 31 31 30 29 28 26 25 24 23 22 21 21 20 19
29 29 30 30 30 32 32 33 35 37 38 37 36 37 38 38 38 37 37 37 37 38 39 39 38 37 36 35 34 33 31 30 29 27 26 25 24 24 23 22 21 21
30 30 32 33 33 34 36 37 38 39 39 39 38 38 39 39 39 38 38 37 38 39 39 40 39 39 37 36 35 34 32 31 30 29 28 27 26 26 25 23 23 23
32 34 36 37 37 39 40 41 41 41 41 41 41 40 40 40 40 39 39 38 39 39 40 40 40 39 38 38 36 35 33 32 31 30 29 29 28 27 26 25 24 25
36 37 39 40 41 42 42 43 43 43 43 43 42 42 41 41 40 40 40 39 39 40 40 40 40 40 39 38 37 36 35 33 32 31 31 30 30 29 27 26 26 26
38 40 41 42 43 43 44 44 44 43 44 44 44 43 43 42 41 41 41 41 41 41 40 40 41 40 40 38 38 37 35 34 33 33 32 31 31 30 28 27 27 27
39 41 42 43 44 45 45 45 44 44 44 44 44 44 43 43 43 43 43 42 42 41 41 41 41 41 40 40 39 38 36 35 34 33 33 32 31 30 29 28 28 28
41 42 43 43 44 45 44 44 44 44 44 44 44 44 43 44 44 44 44 43 42 42 41 41 41 41 41 40 39 38 37 36 35 34 33 32 31 31 30 30 29 29
42 41 42 42 43 43 43 43 43 43 43 43 43 43 44 45 45 44 44 43 42 42 41 41 41 41 41 40 39 38 37 36 35 34 33 32 32 32 31 31 30 30
40 40 40 40 41 41 42 42 42 42 42 42 43 43 44 45 45 44 44 43 42 42 41 41 42 42 42 41 39 38 37 36 35 33 33 32 32 32 32 31 31 31
38 38 38 38 40 41 41 41 42 42 42 42 43 44 45 45 45 44 44 44 43 43 42 42 43 43 42 40 38 37 36 35 34 33 32 32 32 32 32 32 32 31
37 37 37 37 39 40 41 42 41 41 42 43 44 45 45 45 45 45 45 44 44 44 44 44 44 43 41 39 37 36 36 34 33 32 32 32 33 33 32 32 32 32
36 36 37 37 39 40 41 41 41 41 42 43 44 45 45 44 44 45 45 45 45 45 44 45 44 42 40 38 37 35 34 34 33 32 32 32 32 33 32 32 32 32
37 37 38 39 40 40 40 39 40 41 43 44 45 45 44 45 45 45 45 45 45 45 45 44 43 41 39 38 36 34 32 32 32 31 31 32 32 32 32 31 32 32
37 38 39 40 40 39 39 39 40 42 43 44 44 44 44 45 45 45 45 45 46 45 45 44 43 41 39 38 36 32 29 29 30 30 30 31 31 31 31 31 32 32
35 37 38 39 39 38 39 39 41 42 43 43 43 43 44 45 44 45 46 46 46 45 45 44 43 41 39 37 34 30 27 26 28 28 29 29 29 30 30 31 31 31
32 34 35 35 36 36 38 40 41 42 43 42 41 42 42 43 44 45 46 46 45 45 44 44 43 42 40 37 34 29 26 25 25 25 27 29 30 30 30 31 31 30
29 31 33 33 33 35 38 40 41 41 41 41 41 40 39 41 43 44 45 45 45 45 44 44 43 42 40 37 34 30 27 24 22 21 22 25 27 28 28 28 29 30
29 31 33 33 34 36 38 39 39 39 40 40 41 40 40 41 43 43 42 43 44 45 45 44 44 43 40 37 35 31 27 23 21 19 19 21 24 26 27 26 27 29
29 31 33 34 36 38 38 38 38 37 37 38 39 40 39 39 40 40 39 39 42 43 44 43 43 41 39 37 35 31 27 23 20 18 18 19 22 24 25 27 29 31
29 31 33 35 37 38 38 38 37 35 34 35 36 36 35 35 36 37 37 37 38 40 41 42 41 40 38 37 35 32 28 24 20 19 18 19 21 21 20 23 29 33